Home   Weather   42°22'N, 83°25'W   Past weeks
Flag for USA

Past Weather in 42°22'N, 83°25'W, USA — Yesterday and Last 2 Weeks

Now
47 °F

Overcast.


Feels Like: 42 °F
Forecast: 46 / 26 °F
Wind: 10 mph from Southwest

Location: Detroit City Airport

Current Time: Mar 19, 2019 at 7:26:41 pm

Latest Report: Mar 19, 2019 at 5:53 pm


Visibility: 10 mi

Pressure: 30.33 "Hg

Humidity: 41%

Dew Point: 24 °F

Location of 42°22'N, 83°25'WLocation

Past Weather in 42°22'N, 83°25'W — Graph

°F

42°22'N, 83°25'W Temperature Yesterday

Maximum temperature yesterday: 41 °F (at 12:53 pm)
Minimum temperature yesterday: 27 °F (at 4:53 am)
Average temperature yesterday: 35 °F

High & Low Weather Summary for the Past Weeks

 TemperatureHumidityPressure
High62 °F (Mar 14, 6:53 pm)93% (Mar 10, 12:53 am)30.99 "Hg (Mar 10, 12:53 am)
Low9 °F (Mar 5, 12:53 am)32% (Mar 18, 3:53 pm)28.16 "Hg (Mar 7, 8:53 pm)
Average31 °F65%30.10 "Hg
* Reported Mar 4 4:53 pm — Mar 19 5:53 pm, 42°22'N, 83°25'W. Weather by CustomWeather, © 2019

Note: Actual official high and low records may vary slightly from our data, if they occured in-between our weather recording intervals... More about our weather records

Advertising

42°22'N, 83°25'W Weather History for the Previous 24 Hours

Scroll right to see more
 ConditionsComfort  
Time TempWeatherWind HumidityBarometerVisibility
5:53 pm
Tue, Mar 19
47 °FOvercast.10 mph41%30.33 "Hg10 mi
4:53 pm46 °FPartly sunny.10 mph40%30.34 "Hg10 mi
3:53 pm46 °FPartly sunny.12 mph35%30.36 "Hg10 mi
2:53 pm46 °FScattered clouds.12 mph35%30.38 "Hg10 mi
1:53 pm44 °FPartly sunny.7 mph38%30.42 "Hg10 mi
12:53 pm41 °FScattered clouds.6 mph45%30.42 "Hg10 mi
11:53 am41 °FPassing clouds.6 mph49%30.43 "Hg10 mi
10:53 am39 °FSunny.5 mph48%30.43 "Hg10 mi
9:53 am36 °FSunny.3 mph57%30.43 "Hg10 mi
8:53 am32 °FSunny.No wind69%30.42 "Hg10 mi
7:53 am26 °FSunny.No wind74%30.41 "Hg10 mi
6:53 am29 °FClear.No wind66%30.40 "Hg10 mi
5:53 am30 °FClear.5 mph64%30.38 "Hg10 mi
4:53 am31 °FChilly.5 mph61%30.37 "Hg10 mi
3:53 am31 °FClear.6 mph61%30.38 "Hg10 mi
2:53 am33 °FClear.5 mph56%30.39 "Hg10 mi
1:53 am34 °FPassing clouds.5 mph54%30.38 "Hg10 mi
12:53 am35 °FPassing clouds.5 mph56%30.38 "Hg10 mi
11:53 pm
Mon, Mar 18
35 °FOvercast.6 mph61%30.37 "Hg10 mi
10:53 pm36 °FOvercast.6 mph64%30.37 "Hg10 mi
9:53 pm36 °FOvercast.7 mph62%30.37 "Hg10 mi
8:53 pm37 °FOvercast.6 mph54%30.36 "Hg10 mi
7:53 pm38 °FOvercast.9 mph55%30.34 "Hg10 mi
Weather by CustomWeather, © 2019

See weather overview